Wetterdaten: Samstag, 01.11.2014
Datum Zeit Temperatur Luftfeuchte Luftdruck Regen Wind Richtung Richtung Taupunkt Windchill Windben
01.11.2014 00:00 4,1 C 93 % 1026,2 hPa 0,0 l/m 0,2 km/h (0 Bft) NW 315 3,1 C 4,1 C 0,0 km/h (0 Bft)
01.11.2014 00:05 3,8 C 94 % 1026,2 hPa 0,0 l/m 0,0 km/h (0 Bft) S 180 2,9 C 3,9 C 0,0 km/h (0 Bft)
01.11.2014 00:10 3,7 C 93 % 1026,2 hPa 0,0 l/m 0,0 km/h (0 Bft) S 180 2,7 C 3,7 C 0,0 km/h (0 Bft)
01.11.2014 00:15 3,7 C 93 % 1026,2 hPa 0,0 l/m 0,0 km/h (0 Bft) NW 315 2,7 C 3,6 C 0,0 km/h (0 Bft)
01.11.2014 00:20 3,6 C 93 % 1026,3 hPa 0,0 l/m 0,0 km/h (0 Bft) N-NW 337 2,6 C 3,5 C 0,0 km/h (0 Bft)
01.11.2014 00:25 3,9 C 94 % 1026,3 hPa 0,0 l/m 0,0 km/h (0 Bft) SO 135 3,0 C 3,4 C 1,6 km/h (1 Bft)
01.11.2014 00:30 4,3 C 94 % 1026,3 hPa 0,0 l/m 0,0 km/h (0 Bft) O-SO 112 3,4 C 3,6 C 0,0 km/h (0 Bft)
01.11.2014 00:35 4,1 C 94 % 1026,3 hPa 0,0 l/m 0,0 km/h (0 Bft) O-SO 112 3,2 C 3,8 C 0,0 km/h (0 Bft)
01.11.2014 00:40 3,9 C 94 % 1026,1 hPa 0,0 l/m 0,0 km/h (0 Bft) O-SO 112 3,0 C 3,9 C 0,0 km/h (0 Bft)
01.11.2014 00:45 3,7 C 94 % 1026,1 hPa 0,0 l/m 0,0 km/h (0 Bft) O-NO 67 2,8 C 3,8 C 0,0 km/h (0 Bft)
01.11.2014 00:50 3,8 C 94 % 1026,1 hPa 0,0 l/m 0,0 km/h (0 Bft) S-SO 157 2,9 C 3,7 C 0,0 km/h (0 Bft)
01.11.2014 00:55 4,4 C 94 % 1026,1 hPa 0,0 l/m 0,0 km/h (0 Bft) O-NO 67 3,5 C 3,8 C 0,0 km/h (0 Bft)
01.11.2014 01:00 4,4 C 94 % 1026,0 hPa 0,0 l/m 0,0 km/h (0 Bft) O-SO 112 3,5 C 3,9 C 0,0 km/h (0 Bft)
01.11.2014 01:03 4,2 C 94 % 1026,0 hPa 0,0 l/m 0,0 km/h (0 Bft) N-NO 22 3,3 C 3,9 C 0,0 km/h (0 Bft)
01.11.2014 01:10 4,2 C 94 % 1026,0 hPa 0,0 l/m 0,0 km/h (0 Bft) O 90 3,3 C 4,0 C 0,0 km/h (0 Bft)
01.11.2014 01:15 4,2 C 94 % 1026,0 hPa 0,0 l/m 0,0 km/h (0 Bft) O 90 3,3 C 4,1 C 0,0 km/h (0 Bft)
01.11.2014 01:20 4,0 C 94 % 1026,3 hPa 0,0 l/m 0,2 km/h (0 Bft) SO 135 3,1 C 4,1 C 1,9 km/h (1 Bft)
01.11.2014 01:25 4,4 C 94 % 1026,3 hPa 0,0 l/m 0,5 km/h (0 Bft) O-SO 112 3,5 C 4,2 C 0,0 km/h (0 Bft)
01.11.2014 01:30 4,2 C 94 % 1026,3 hPa 0,0 l/m 0,3 km/h (0 Bft) O-SO 112 3,3 C 4,2 C 0,0 km/h (0 Bft)
01.11.2014 01:35 4,1 C 94 % 1026,3 hPa 0,0 l/m 0,0 km/h (0 Bft) SO 135 3,2 C 4,1 C 0,0 km/h (0 Bft)
01.11.2014 01:40 3,9 C 94 % 1026,2 hPa 0,0 l/m 0,0 km/h (0 Bft) SO 135 3,0 C 3,9 C 0,0 km/h (0 Bft)
01.11.2014 01:45 3,8 C 94 % 1026,2 hPa 0,0 l/m 0,0 km/h (0 Bft) O-NO 67 2,9 C 3,7 C 0,0 km/h (0 Bft)
01.11.2014 01:50 3,4 C 94 % 1026,2 hPa 0,0 l/m 0,0 km/h (0 Bft) O-NO 67 2,5 C 3,6 C 0,0 km/h (0 Bft)
01.11.2014 01:55 3,1 C 94 % 1026,2 hPa 0,0 l/m 0,0 km/h (0 Bft) O-SO 112 2,2 C 3,2 C 0,0 km/h (0 Bft)
01.11.2014 02:00 3,2 C 94 % 1026,2 hPa 0,0 l/m 0,2 km/h (0 Bft) S-SO 157 2,3 C 3,0 C 0,0 km/h (0 Bft)
01.11.2014 02:05 4,1 C 94 % 1026,2 hPa 0,0 l/m 0,6 km/h (0 Bft) S-SO 157 3,2 C 3,2 C 2,9 km/h (1 Bft)
01.11.2014 02:10 4,2 C 94 % 1026,2 hPa 0,0 l/m 0,8 km/h (0 Bft) O-SO 112 3,3 C 3,3 C 1,6 km/h (1 Bft)
01.11.2014 02:15 4,3 C 94 % 1026,2 hPa 0,0 l/m 1,1 km/h (1 Bft) O-SO 112 3,4 C 3,6 C 1,8 km/h (1 Bft)
01.11.2014 02:20 4,3 C 95 % 1026,2 hPa 0,0 l/m 1,8 km/h (1 Bft) SO 135 3,6 C 3,8 C 2,1 km/h (1 Bft)
01.11.2014 02:25 3,9 C 95 % 1026,2 hPa 0,0 l/m 0,8 km/h (0 Bft) S 180 3,2 C 3,9 C 3,4 km/h (1 Bft)
01.11.2014 02:30 3,5 C 95 % 1026,2 hPa 0,0 l/m 0,0 km/h (0 Bft) S 180 2,8 C 3,6 C 0,0 km/h (0 Bft)
01.11.2014 02:35 3,3 C 95 % 1026,2 hPa 0,0 l/m 0,0 km/h (0 Bft) S 180 2,6 C 3,3 C 0,0 km/h (0 Bft)
01.11.2014 02:40 3,2 C 95 % 1025,9 hPa 0,0 l/m 0,0 km/h (0 Bft) S 180 2,5 C 3,2 C 0,0 km/h (0 Bft)
01.11.2014 02:45 3,2 C 95 % 1025,9 hPa 0,0 l/m 0,0 km/h (0 Bft) S 180 2,5 C 3,1 C 0,0 km/h (0 Bft)
01.11.2014 02:50 3,0 C 94 % 1025,9 hPa 0,0 l/m 0,0 km/h (0 Bft) O-SO 112 2,1 C 3,0 C 0,0 km/h (0 Bft)
01.11.2014 02:55 2,9 C 95 % 1025,9 hPa 0,0 l/m 0,0 km/h (0 Bft) O-SO 112 2,2 C 2,7 C 0,0 km/h (0 Bft)
01.11.2014 03:00 3,1 C 95 % 1025,9 hPa 0,0 l/m 0,0 km/h (0 Bft) O 90 2,4 C 2,7 C 0,0 km/h (0 Bft)
01.11.2014 03:05 3,5 C 95 % 1025,9 hPa 0,0 l/m 0,0 km/h (0 Bft) SO 135 2,8 C 2,7 C 0,0 km/h (0 Bft)
01.11.2014 03:10 3,3 C 95 % 1025,9 hPa 0,0 l/m 0,0 km/h (0 Bft) O-SO 112 2,6 C 2,7 C 0,0 km/h (0 Bft)
01.11.2014 03:15 3,1 C 95 % 1025,9 hPa 0,0 l/m 0,2 km/h (0 Bft) S 180 2,4 C 2,7 C 2,1 km/h (1 Bft)
01.11.2014 03:20 3,0 C 95 % 1026,0 hPa 0,0 l/m 0,3 km/h (0 Bft) S 180 2,3 C 2,9 C 0,0 km/h (0 Bft)
01.11.2014 03:25 3,2 C 95 % 1026,0 hPa 0,0 l/m 0,3 km/h (0 Bft) O 90 2,5 C 3,0 C 2,4 km/h (1 Bft)
01.11.2014 03:30 3,3 C 95 % 1026,0 hPa 0,0 l/m 0,3 km/h (0 Bft) SO 135 2,6 C 3,2 C 1,6 km/h (1 Bft)
01.11.2014 03:35 3,0 C 95 % 1026,0 hPa 0,0 l/m 0,3 km/h (0 Bft) W 270 2,3 C 3,3 C 1,6 km/h (1 Bft)
01.11.2014 03:40 2,8 C 96 % 1025,6 hPa 0,0 l/m 0,2 km/h (0 Bft) W 270 2,2 C 3,0 C 0,0 km/h (0 Bft)
01.11.2014 03:45 2,7 C 96 % 1025,6 hPa 0,0 l/m 0,2 km/h (0 Bft) SO 135 2,1 C 2,6 C 1,8 km/h (1 Bft)
01.11.2014 03:50 3,0 C 95 % 1025,6 hPa 0,0 l/m 0,0 km/h (0 Bft) SO 135 2,3 C 2,4 C 0,0 km/h (0 Bft)
01.11.2014 03:55 2,9 C 96 % 1025,6 hPa 0,0 l/m 0,0 km/h (0 Bft) SO 135 2,3 C 2,5 C 0,0 km/h (0 Bft)
01.11.2014 04:00 3,2 C 95 % 1025,5 hPa 0,0 l/m 0,3 km/h (0 Bft) O-SO 112 2,5 C 2,6 C 1,9 km/h (1 Bft)
01.11.2014 04:03 3,2 C 95 % 1025,5 hPa 0,0 l/m 0,5 km/h (0 Bft) O-NO 67 2,5 C 2,8 C 0,0 km/h (0 Bft)
01.11.2014 04:05 3,2 C 95 % 1025,5 hPa 0,0 l/m 0,5 km/h (0 Bft) O-NO 67 2,5 C 2,8 C 0,0 km/h (0 Bft)
01.11.2014 04:10 2,9 C 96 % 1025,5 hPa 0,0 l/m 0,3 km/h (0 Bft) O-NO 67 2,3 C 2,9 C 0,0 km/h (0 Bft)
01.11.2014 04:15 2,8 C 96 % 1025,5 hPa 0,0 l/m 0,0 km/h (0 Bft) O-NO 67 2,2 C 2,7 C 0,0 km/h (0 Bft)
01.11.2014 04:20 2,7 C 96 % 1025,2 hPa 0,0 l/m 0,0 km/h (0 Bft) S 180 2,1 C 2,6 C 0,0 km/h (0 Bft)
01.11.2014 04:25 2,8 C 96 % 1025,2 hPa 0,0 l/m 0,2 km/h (0 Bft) O-NO 67 2,2 C 2,5 C 0,0 km/h (0 Bft)
01.11.2014 04:30 2,8 C 96 % 1025,2 hPa 0,0 l/m 0,3 km/h (0 Bft) W-SW 247 2,2 C 2,5 C 0,0 km/h (0 Bft)
01.11.2014 04:35 2,9 C 96 % 1025,2 hPa 0,0 l/m 0,2 km/h (0 Bft) S-SW 202 2,3 C 2,6 C 0,0 km/h (0 Bft)
01.11.2014 04:40 2,9 C 96 % 1025,0 hPa 0,0 l/m 0,0 km/h (0 Bft) W-NW 292 2,3 C 2,6 C 0,0 km/h (0 Bft)
01.11.2014 04:45 3,1 C 95 % 1025,0 hPa 0,0 l/m 0,2 km/h (0 Bft) NW 315 2,4 C 2,6 C 0,0 km/h (0 Bft)
01.11.2014 04:50 3,3 C 95 % 1025,0 hPa 0,0 l/m 0,3 km/h (0 Bft) S 180 2,6 C 2,6 C 3,2 km/h (1 Bft)
01.11.2014 04:55 3,7 C 96 % 1025,0 hPa 0,0 l/m 0,3 km/h (0 Bft) N-NO 22 3,1 C 2,9 C 0,0 km/h (0 Bft)
01.11.2014 05:00 3,3 C 96 % 1024,8 hPa 0,0 l/m 0,2 km/h (0 Bft) N-NO 22 2,7 C 3,0 C 0,0 km/h (0 Bft)
01.11.2014 05:05 3,0 C 95 % 1024,8 hPa 0,0 l/m 0,0 km/h (0 Bft) O-NO 67 2,3 C 2,9 C 0,0 km/h (0 Bft)
01.11.2014 05:10 3,2 C 96 % 1024,8 hPa 0,0 l/m 0,0 km/h (0 Bft) S-SO 157 2,6 C 2,9 C 0,0 km/h (0 Bft)
01.11.2014 05:15 3,2 C 96 % 1024,8 hPa 0,0 l/m 0,0 km/h (0 Bft) SO 135 2,6 C 2,9 C 0,0 km/h (0 Bft)
01.11.2014 05:20 3,2 C 96 % 1025,6 hPa 0,0 l/m 0,0 km/h (0 Bft) SO 135 2,6 C 2,8 C 0,0 km/h (0 Bft)
01.11.2014 05:25 3,2 C 96 % 1025,6 hPa 0,0 l/m 0,0 km/h (0 Bft) SO 135 2,6 C 2,9 C 0,0 km/h (0 Bft)
01.11.2014 05:30 3,0 C 96 % 1025,6 hPa 0,0 l/m 0,0 km/h (0 Bft) SO 135 2,4 C 2,9 C 0,0 km/h (0 Bft)
01.11.2014 05:35 2,7 C 96 % 1025,6 hPa 0,0 l/m 0,0 km/h (0 Bft) S-SO 157 2,1 C 2,6 C 0,0 km/h (0 Bft)
01.11.2014 05:40 2,8 C 96 % 1025,8 hPa 0,0 l/m 0,0 km/h (0 Bft) O-SO 112 2,2 C 2,6 C 0,0 km/h (0 Bft)
01.11.2014 05:45 2,9 C 96 % 1025,8 hPa 0,0 l/m 0,0 km/h (0 Bft) O-SO 112 2,3 C 2,7 C 0,0 km/h (0 Bft)
01.11.2014 05:50 3,2 C 96 % 1025,8 hPa 0,0 l/m 0,0 km/h (0 Bft) S-SO 157 2,6 C 2,8 C 0,0 km/h (0 Bft)
01.11.2014 05:55 3,0 C 96 % 1025,8 hPa 0,0 l/m 0,0 km/h (0 Bft) S 180 2,4 C 2,8 C 2,1 km/h (1 Bft)
01.11.2014 06:00 3,0 C 96 % 1025,7 hPa 0,0 l/m 0,0 km/h (0 Bft) S 180 2,4 C 2,8 C 0,0 km/h (0 Bft)
01.11.2014 06:05 2,9 C 96 % 1025,7 hPa 0,0 l/m 0,0 km/h (0 Bft) O-SO 112 2,3 C 2,8 C 0,0 km/h (0 Bft)
01.11.2014 06:10 2,9 C 96 % 1025,7 hPa 0,0 l/m 0,0 km/h (0 Bft) O-SO 112 2,3 C 2,7 C 0,0 km/h (0 Bft)
01.11.2014 06:15 3,3 C 96 % 1025,7 hPa 0,0 l/m 0,2 km/h (0 Bft) O-NO 67 2,7 C 2,7 C 0,0 km/h (0 Bft)
01.11.2014 06:20 3,5 C 96 % 1025,7 hPa 0,0 l/m 0,2 km/h (0 Bft) S-SO 157 2,9 C 2,8 C 0,0 km/h (0 Bft)
01.11.2014 06:25 3,0 C 96 % 1025,7 hPa 0,0 l/m 0,2 km/h (0 Bft) O-SO 112 2,4 C 2,8 C 0,0 km/h (0 Bft)
01.11.2014 06:30 2,8 C 96 % 1025,7 hPa 0,0 l/m 0,0 km/h (0 Bft) SO 135 2,2 C 2,8 C 0,0 km/h (0 Bft)
01.11.2014 06:35 2,8 C 97 % 1025,7 hPa 0,0 l/m 0,0 km/h (0 Bft) O-SO 112 2,4 C 2,7 C 0,0 km/h (0 Bft)
01.11.2014 06:40 2,8 C 97 % 1025,5 hPa 0,0 l/m 0,0 km/h (0 Bft) O-SO 112 2,4 C 2,7 C 0,0 km/h (0 Bft)
01.11.2014 06:45 3,0 C 96 % 1025,5 hPa 0,0 l/m 0,2 km/h (0 Bft) S 180 2,4 C 2,7 C 2,3 km/h (1 Bft)
01.11.2014 06:50 3,4 C 96 % 1025,5 hPa 0,0 l/m 0,3 km/h (0 Bft) SW 225 2,8 C 2,9 C 0,0 km/h (0 Bft)
01.11.2014 06:55 3,0 C 96 % 1025,5 hPa 0,0 l/m 0,3 km/h (0 Bft) W 270 2,4 C 2,9 C 0,0 km/h (0 Bft)
01.11.2014 07:00 2,8 C 97 % 1025,4 hPa 0,0 l/m 0,0 km/h (0 Bft) S-SW 202 2,4 C 2,8 C 1,6 km/h (1 Bft)
01.11.2014 07:05 2,8 C 97 % 1025,4 hPa 0,0 l/m 0,0 km/h (0 Bft) S-SW 202 2,4 C 2,7 C 0,0 km/h (0 Bft)
01.11.2014 07:10 2,7 C 97 % 1025,4 hPa 0,0 l/m 0,0 km/h (0 Bft) S-SW 202 2,3 C 2,6 C 0,0 km/h (0 Bft)
01.11.2014 07:15 3,0 C 96 % 1025,4 hPa 0,0 l/m 0,0 km/h (0 Bft) N-NO 22 2,4 C 2,6 C 0,0 km/h (0 Bft)
01.11.2014 07:20 2,9 C 97 % 1025,2 hPa 0,0 l/m 0,0 km/h (0 Bft) S-SO 157 2,5 C 2,7 C 0,0 km/h (0 Bft)
01.11.2014 07:25 3,1 C 96 % 1025,2 hPa 0,0 l/m 0,0 km/h (0 Bft) SO 135 2,5 C 2,9 C 0,0 km/h (0 Bft)
01.11.2014 07:30 3,4 C 96 % 1025,2 hPa 0,0 l/m 0,0 km/h (0 Bft) W-NW 292 2,8 C 3,2 C 0,0 km/h (0 Bft)
01.11.2014 07:35 3,5 C 96 % 1025,2 hPa 0,0 l/m 0,0 km/h (0 Bft) S-SO 157 2,9 C 3,4 C 0,0 km/h (0 Bft)
01.11.2014 07:40 3,5 C 96 % 1025,3 hPa 0,0 l/m 0,0 km/h (0 Bft) S-SO 157 2,9 C 3,5 C 0,0 km/h (0 Bft)
01.11.2014 07:45 3,6 C 96 % 1025,3 hPa 0,0 l/m 0,0 km/h (0 Bft) SW 225 3,0 C 3,6 C 1,6 km/h (1 Bft)
01.11.2014 07:50 3,7 C 96 % 1025,3 hPa 0,0 l/m 0,0 km/h (0 Bft) W-SW 247 3,1 C 3,7 C 0,0 km/h (0 Bft)
01.11.2014 07:55 4,0 C 96 % 1025,3 hPa 0,0 l/m 0,0 km/h (0 Bft) S 180 3,4 C 4,1 C 0,0 km/h (0 Bft)
01.11.2014 08:00 4,3 C 96 % 1025,3 hPa 0,0 l/m 0,0 km/h (0 Bft) S-SO 157 3,7 C 4,3 C 0,0 km/h (0 Bft)
01.11.2014 08:05 4,5 C 96 % 1025,3 hPa 0,0 l/m 0,0 km/h (0 Bft) S-SO 157 3,9 C 4,7 C 0,0 km/h (0 Bft)
01.11.2014 08:10 4,8 C 96 % 1025,3 hPa 0,0 l/m 0,0 km/h (0 Bft) W-SW 247 4,2 C 5,0 C 0,0 km/h (0 Bft)
01.11.2014 08:15 4,9 C 96 % 1025,3 hPa 0,0 l/m 0,0 km/h (0 Bft) SW 225 4,3 C 5,2 C 0,0 km/h (0 Bft)
01.11.2014 08:20 5,2 C 96 % 1025,4 hPa 0,0 l/m 0,0 km/h (0 Bft) S 180 4,6 C 5,3 C 0,0 km/h (0 Bft)
01.11.2014 08:25 5,5 C 96 % 1025,4 hPa 0,0 l/m 0,0 km/h (0 Bft) S 180 4,9 C 5,6 C 0,0 km/h (0 Bft)
01.11.2014 08:30 5,6 C 96 % 1025,4 hPa 0,0 l/m 0,0 km/h (0 Bft) S-SO 157 5,0 C 5,8 C 0,0 km/h (0 Bft)
01.11.2014 08:35 5,8 C 96 % 1025,4 hPa 0,0 l/m 0,0 km/h (0 Bft) W 270 5,2 C 6,0 C 0,0 km/h (0 Bft)
01.11.2014 08:40 5,9 C 96 % 1025,3 hPa 0,0 l/m 0,0 km/h (0 Bft) S 180 5,3 C 6,1 C 0,0 km/h (0 Bft)
01.11.2014 08:45 6,1 C 95 % 1025,3 hPa 0,0 l/m 0,0 km/h (0 Bft) S-SW 202 5,4 C 6,3 C 0,0 km/h (0 Bft)
01.11.2014 08:50 6,2 C 95 % 1025,3 hPa 0,0 l/m 0,0 km/h (0 Bft) S-SW 202 5,5 C 6,4 C 0,0 km/h (0 Bft)
01.11.2014 08:55 6,5 C 95 % 1025,3 hPa 0,0 l/m 0,0 km/h (0 Bft) N-NO 22 5,8 C 6,6 C 0,0 km/h (0 Bft)
01.11.2014 09:00 6,7 C 95 % 1025,2 hPa 0,0 l/m 0,0 km/h (0 Bft) O 90 6,0 C 6,8 C 0,0 km/h (0 Bft)
01.11.2014 09:05 6,9 C 95 % 1025,2 hPa 0,0 l/m 0,0 km/h (0 Bft) NO 45 6,2 C 7,1 C 0,0 km/h (0 Bft)
01.11.2014 09:10 7,0 C 95 % 1025,2 hPa 0,0 l/m 0,0 km/h (0 Bft) NO 45 6,3 C 7,4 C 0,0 km/h (0 Bft)
01.11.2014 09:15 7,1 C 95 % 1025,2 hPa 0,0 l/m 0,0 km/h (0 Bft) S 180 6,4 C 7,7 C 0,0 km/h (0 Bft)
01.11.2014 09:20 7,2 C 95 % 1025,2 hPa 0,0 l/m 0,0 km/h (0 Bft) SO 135 6,5 C 8,2 C 1,9 km/h (1 Bft)
01.11.2014 09:25 7,5 C 95 % 1025,2 hPa 0,0 l/m 0,2 km/h (0 Bft) SO 135 6,8 C 8,8 C 0,0 km/h (0 Bft)
01.11.2014 09:30 7,7 C 95 % 1025,2 hPa 0,0 l/m 0,2 km/h (0 Bft) SO 135 7,0 C 9,9 C 0,0 km/h (0 Bft)
01.11.2014 09:35 8,0 C 94 % 1025,2 hPa 0,0 l/m 0,0 km/h (0 Bft) S 180 7,1 C 10,9 C 0,0 km/h (0 Bft)
01.11.2014 09:40 8,2 C 95 % 1025,2 hPa 0,0 l/m 0,2 km/h (0 Bft) S 180 7,4 C 12,3 C 0,0 km/h (0 Bft)
01.11.2014 09:45 8,5 C 94 % 1025,2 hPa 0,0 l/m 0,5 km/h (0 Bft) O-SO 112 7,6 C 14,2 C 0,0 km/h (0 Bft)
01.11.2014 09:50 8,7 C 94 % 1025,2 hPa 0,0 l/m 0,8 km/h (0 Bft) S-SO 157 7,8 C 14,6 C 1,8 km/h (1 Bft)
01.11.2014 09:55 9,0 C 94 % 1025,2 hPa 0,0 l/m 1,1 km/h (1 Bft) SO 135 8,1 C 14,9 C 2,1 km/h (1 Bft)
01.11.2014 09:58 9,2 C 94 % 1025,4 hPa 0,0 l/m 1,6 km/h (1 Bft) SO 135 8,3 C 15,0 C 3,2 km/h (1 Bft)
01.11.2014 10:00 9,2 C 94 % 1025,4 hPa 0,0 l/m 1,6 km/h (1 Bft) SO 135 8,3 C 15,0 C 3,2 km/h (1 Bft)
01.11.2014 10:05 9,6 C 94 % 1025,4 hPa 0,0 l/m 1,8 km/h (1 Bft) SO 135 8,7 C 15,7 C 2,3 km/h (1 Bft)
01.11.2014 10:10 9,8 C 94 % 1025,4 hPa 0,0 l/m 1,6 km/h (1 Bft) O-SO 112 8,9 C 16,3 C 0,0 km/h (0 Bft)
01.11.2014 10:15 9,7 C 93 % 1025,4 hPa 0,0 l/m 1,0 km/h (0 Bft) SO 135 8,6 C 17,2 C 0,0 km/h (0 Bft)
01.11.2014 10:20 9,8 C 93 % 1025,4 hPa 0,0 l/m 0,5 km/h (0 Bft) S 180 8,7 C 18,0 C 0,0 km/h (0 Bft)
01.11.2014 10:25 10,1 C 93 % 1025,4 hPa 0,0 l/m 0,0 km/h (0 Bft) S 180 9,0 C 19,4 C 0,0 km/h (0 Bft)
01.11.2014 10:30 10,6 C 93 % 1025,4 hPa 0,0 l/m 0,0 km/h (0 Bft) S 180 9,5 C 20,0 C 0,0 km/h (0 Bft)
01.11.2014 10:35 11,0 C 93 % 1025,4 hPa 0,0 l/m 0,0 km/h (0 Bft) S-SW 202 9,9 C 20,7 C 0,0 km/h (0 Bft)
01.11.2014 10:40 11,2 C 93 % 1025,4 hPa 0,0 l/m 0,0 km/h (0 Bft) S 180 10,1 C 21,6 C 0,0 km/h (0 Bft)
01.11.2014 10:45 11,6 C 92 % 1025,4 hPa 0,0 l/m 0,0 km/h (0 Bft) S 180 10,3 C 21,8 C 0,0 km/h (0 Bft)
01.11.2014 10:50 11,8 C 92 % 1025,4 hPa 0,0 l/m 0,0 km/h (0 Bft) S-SO 157 10,5 C 21,8 C 0,0 km/h (0 Bft)
01.11.2014 10:55 11,9 C 91 % 1025,4 hPa 0,0 l/m 0,0 km/h (0 Bft) SO 135 10,5 C 22,1 C 0,0 km/h (0 Bft)
01.11.2014 11:00 12,1 C 89 % 1025,9 hPa 0,0 l/m 0,0 km/h (0 Bft) S-SO 157 10,3 C 22,5 C 0,0 km/h (0 Bft)
01.11.2014 11:05 12,2 C 88 % 1025,9 hPa 0,0 l/m 0,0 km/h (0 Bft) SO 135 10,3 C 22,9 C 0,0 km/h (0 Bft)
01.11.2014 11:10 12,6 C 86 % 1025,9 hPa 0,0 l/m 0,0 km/h (0 Bft) S-SO 157 10,3 C 22,9 C 0,0 km/h (0 Bft)
01.11.2014 11:15 13,1 C 78 % 1025,9 hPa 0,0 l/m 0,6 km/h (0 Bft) S 180 9,4 C 22,3 C 3,7 km/h (1 Bft)
01.11.2014 11:20 13,7 C 71 % 1026,1 hPa 0,0 l/m 1,3 km/h (1 Bft) O-SO 112 8,5 C 21,8 C 1,9 km/h (1 Bft)
01.11.2014 11:25 13,6 C 78 % 1026,1 hPa 0,0 l/m 1,3 km/h (1 Bft) O-SO 112 9,8 C 22,2 C 0,0 km/h (0 Bft)
01.11.2014 11:30 13,7 C 80 % 1026,1 hPa 0,0 l/m 0,6 km/h (0 Bft) N 360 10,3 C 22,8 C 1,8 km/h (1 Bft)
01.11.2014 11:35 14,2 C 75 % 1026,1 hPa 0,0 l/m 0,8 km/h (0 Bft) NW 315 9,8 C 23,1 C 2,3 km/h (1 Bft)
01.11.2014 11:40 14,3 C 72 % 1026,1 hPa 0,0 l/m 1,4 km/h (1 Bft) NO 45 9,3 C 23,0 C 3,2 km/h (1 Bft)
01.11.2014 11:45 14,4 C 70 % 1026,1 hPa 0,0 l/m 2,6 km/h (1 Bft) O-NO 67 9,0 C 21,9 C 4,8 km/h (1 Bft)
01.11.2014 11:50 14,4 C 71 % 1026,1 hPa 0,0 l/m 3,1 km/h (1 Bft) O-NO 67 9,2 C 21,3 C 2,1 km/h (1 Bft)
01.11.2014 11:55 14,2 C 75 % 1026,1 hPa 0,0 l/m 2,6 km/h (1 Bft) O 90 9,8 C 20,3 C 3,5 km/h (1 Bft)
01.11.2014 12:00 14,1 C 73 % 1026,1 hPa 0,0 l/m 1,9 km/h (1 Bft) SO 135 9,3 C 19,6 C 2,9 km/h (1 Bft)
01.11.2014 12:05 14,3 C 76 % 1026,1 hPa 0,0 l/m 1,8 km/h (1 Bft) SO 135 10,1 C 18,7 C 1,6 km/h (1 Bft)
01.11.2014 12:10 14,3 C 76 % 1026,1 hPa 0,0 l/m 1,6 km/h (1 Bft) O-NO 67 10,1 C 18,2 C 2,3 km/h (1 Bft)
01.11.2014 12:15 14,4 C 75 % 1026,1 hPa 0,0 l/m 1,4 km/h (1 Bft) O-SO 112 10,0 C 17,5 C 0,0 km/h (0 Bft)
01.11.2014 12:20 14,4 C 75 % 1026,1 hPa 0,0 l/m 1,0 km/h (0 Bft) O-SO 112 10,0 C 17,5 C 0,0 km/h (0 Bft)
01.11.2014 12:25 14,4 C 72 % 1026,1 hPa 0,0 l/m 0,3 km/h (0 Bft) O-NO 67 9,4 C 18,0 C 1,8 km/h (1 Bft)
01.11.2014 12:30 14,5 C 73 % 1026,1 hPa 0,0 l/m 0,5 km/h (0 Bft) SO 135 9,7 C 18,5 C 0,0 km/h (0 Bft)
01.11.2014 12:35 14,6 C 66 % 1026,1 hPa 0,0 l/m 0,8 km/h (0 Bft) SO 135 8,3 C 19,3 C 1,9 km/h (1 Bft)
01.11.2014 12:40 14,8 C 69 % 1026,4 hPa 0,0 l/m 0,8 km/h (0 Bft) SO 135 9,2 C 20,3 C 0,0 km/h (0 Bft)
01.11.2014 12:45 14,7 C 65 % 1026,4 hPa 0,0 l/m 0,8 km/h (0 Bft) SO 135 8,2 C 21,5 C 0,0 km/h (0 Bft)
01.11.2014 12:50 14,8 C 67 % 1026,4 hPa 0,0 l/m 1,0 km/h (0 Bft) O-SO 112 8,7 C 21,8 C 0,0 km/h (0 Bft)
01.11.2014 12:55 14,7 C 66 % 1026,4 hPa 0,0 l/m 0,6 km/h (0 Bft) S-SO 157 8,4 C 22,1 C 2,6 km/h (1 Bft)
01.11.2014 12:58 14,7 C 65 % 1025,8 hPa 0,0 l/m 0,8 km/h (0 Bft) S-SO 157 8,2 C 21,3 C 1,8 km/h (1 Bft)
01.11.2014 13:00 14,7 C 65 % 1025,8 hPa 0,0 l/m 0,8 km/h (0 Bft) S-SO 157 8,2 C 21,3 C 1,8 km/h (1 Bft)
01.11.2014 13:05 14,8 C 63 % 1025,8 hPa 0,0 l/m 1,1 km/h (1 Bft) SO 135 7,8 C 20,7 C 1,8 km/h (1 Bft)
01.11.2014 13:10 14,9 C 65 % 1025,8 hPa 0,0 l/m 0,8 km/h (0 Bft) O-SO 112 8,4 C 20,6 C 1,8 km/h (1 Bft)
01.11.2014 13:15 14,9 C 62 % 1025,8 hPa 0,0 l/m 1,4 km/h (1 Bft) SO 135 7,7 C 20,8 C 1,9 km/h (1 Bft)
01.11.2014 13:20 15,0 C 62 % 1025,6 hPa 0,0 l/m 1,6 km/h (1 Bft) SO 135 7,8 C 21,0 C 1,9 km/h (1 Bft)
01.11.2014 13:25 15,1 C 63 % 1025,6 hPa 0,0 l/m 1,0 km/h (0 Bft) SO 135 8,1 C 21,4 C 0,0 km/h (0 Bft)
01.11.2014 13:30 15,1 C 63 % 1025,6 hPa 0,0 l/m 0,5 km/h (0 Bft) S-SO 157 8,1 C 22,1 C 0,0 km/h (0 Bft)
01.11.2014 13:35 15,9 C 61 % 1025,6 hPa 0,0 l/m 0,2 km/h (0 Bft) SO 135 8,4 C 22,9 C 2,7 km/h (1 Bft)
01.11.2014 13:40 16,3 C 60 % 1025,4 hPa 0,0 l/m 0,3 km/h (0 Bft) SO 135 8,5 C 23,0 C 0,0 km/h (0 Bft)
01.11.2014 13:45 17,1 C 58 % 1025,4 hPa 0,0 l/m 0,5 km/h (0 Bft) S 180 8,8 C 23,0 C 0,0 km/h (0 Bft)
01.11.2014 13:50 17,4 C 59 % 1025,4 hPa 0,0 l/m 0,2 km/h (0 Bft) SO 135 9,3 C 23,1 C 0,0 km/h (0 Bft)
01.11.2014 13:55 17,3 C 56 % 1025,4 hPa 0,0 l/m 0,2 km/h (0 Bft) S-SO 157 8,4 C 23,0 C 0,0 km/h (0 Bft)
01.11.2014 14:00 17,4 C 56 % 1025,4 hPa 0,0 l/m 0,2 km/h (0 Bft) SO 135 8,5 C 22,6 C 0,0 km/h (0 Bft)
01.11.2014 14:05 18,0 C 55 % 1025,4 hPa 0,0 l/m 0,3 km/h (0 Bft) O-SO 112 8,8 C 22,5 C 2,9 km/h (1 Bft)
01.11.2014 14:10 18,5 C 55 % 1025,4 hPa 0,0 l/m 0,3 km/h (0 Bft) O 90 9,3 C 22,8 C 0,0 km/h (0 Bft)
01.11.2014 14:15 18,7 C 52 % 1025,4 hPa 0,0 l/m 0,5 km/h (0 Bft) S-SO 157 8,6 C 23,8 C 0,0 km/h (0 Bft)
01.11.2014 14:20 18,7 C 53 % 1025,4 hPa 0,0 l/m 0,3 km/h (0 Bft) O-SO 112 8,9 C 24,0 C 0,0 km/h (0 Bft)
01.11.2014 14:25 18,6 C 52 % 1025,4 hPa 0,0 l/m 0,3 km/h (0 Bft) O-SO 112 8,5 C 23,9 C 0,0 km/h (0 Bft)
01.11.2014 14:30 17,8 C 52 % 1025,4 hPa 0,0 l/m 0,2 km/h (0 Bft) S-SO 157 7,8 C 23,4 C 0,0 km/h (0 Bft)
01.11.2014 14:35 17,4 C 53 % 1025,4 hPa 0,0 l/m 0,2 km/h (0 Bft) S 180 7,7 C 22,0 C 0,0 km/h (0 Bft)
01.11.2014 14:40 17,6 C 53 % 1025,2 hPa 0,0 l/m 0,0 km/h (0 Bft) S 180 7,9 C 21,5 C 0,0 km/h (0 Bft)
01.11.2014 14:45 17,4 C 52 % 1025,2 hPa 0,0 l/m 0,0 km/h (0 Bft) SO 135 7,4 C 20,2 C 0,0 km/h (0 Bft)
01.11.2014 14:50 17,4 C 53 % 1025,2 hPa 0,0 l/m 0,0 km/h (0 Bft) SO 135 7,7 C 19,7 C 0,0 km/h (0 Bft)
01.11.2014 14:55 17,6 C 53 % 1025,2 hPa 0,0 l/m 0,2 km/h (0 Bft) S-SO 157 7,9 C 19,2 C 0,0 km/h (0 Bft)
01.11.2014 15:00 17,2 C 50 % 1025,2 hPa 0,0 l/m 0,5 km/h (0 Bft) SO 135 6,7 C 18,8 C 1,9 km/h (1 Bft)
01.11.2014 15:05 17,2 C 53 % 1025,2 hPa 0,0 l/m 1,0 km/h (0 Bft) NO 45 7,5 C 18,0 C 3,4 km/h (1 Bft)
01.11.2014 15:10 17,0 C 54 % 1025,2 hPa 0,0 l/m 0,8 km/h (0 Bft) O-SO 112 7,6 C 17,5 C 2,3 km/h (1 Bft)
01.11.2014 15:15 16,9 C 55 % 1025,2 hPa 0,0 l/m 1,0 km/h (0 Bft) SO 135 7,8 C 17,1 C 2,3 km/h (1 Bft)
01.11.2014 15:20 16,5 C 55 % 1024,9 hPa 0,0 l/m 1,0 km/h (0 Bft) SO 135 7,4 C 16,7 C 0,0 km/h (0 Bft)
01.11.2014 15:25 15,7 C 58 % 1024,9 hPa 0,0 l/m 0,5 km/h (0 Bft) SO 135 7,5 C 16,4 C 0,0 km/h (0 Bft)
01.11.2014 15:30 15,0 C 59 % 1024,9 hPa 0,0 l/m 0,6 km/h (0 Bft) SO 135 7,1 C 16,3 C 1,8 km/h (1 Bft)
01.11.2014 15:35 14,5 C 62 % 1024,9 hPa 0,0 l/m 0,5 km/h (0 Bft) SO 135 7,3 C 15,8 C 2,1 km/h (1 Bft)
01.11.2014 15:40 14,3 C 63 % 1024,8 hPa 0,0 l/m 0,5 km/h (0 Bft) SO 135 7,4 C 15,5 C 1,6 km/h (1 Bft)
01.11.2014 15:45 13,7 C 65 % 1024,8 hPa 0,0 l/m 0,6 km/h (0 Bft) SO 135 7,2 C 14,8 C 0,0 km/h (0 Bft)
01.11.2014 15:50 13,6 C 66 % 1024,8 hPa 0,0 l/m 0,3 km/h (0 Bft) SO 135 7,4 C 14,5 C 0,0 km/h (0 Bft)
01.11.2014 15:55 13,4 C 67 % 1024,8 hPa 0,0 l/m 0,0 km/h (0 Bft) S-SO 157 7,4 C 14,2 C 0,0 km/h (0 Bft)
01.11.2014 15:58 13,0 C 68 % 1024,9 hPa 0,0 l/m 0,0 km/h (0 Bft) SO 135 7,2 C 13,9 C 0,0 km/h (0 Bft)
01.11.2014 16:00 13,0 C 68 % 1024,9 hPa 0,0 l/m 0,0 km/h (0 Bft) SO 135 7,2 C 13,9 C 0,0 km/h (0 Bft)
01.11.2014 16:05 12,6 C 69 % 1024,9 hPa 0,0 l/m 0,0 km/h (0 Bft) SO 135 7,1 C 13,6 C 0,0 km/h (0 Bft)
01.11.2014 16:10 12,5 C 71 % 1024,9 hPa 0,0 l/m 0,0 km/h (0 Bft) SO 135 7,4 C 13,3 C 0,0 km/h (0 Bft)
01.11.2014 16:15 12,0 C 72 % 1024,9 hPa 0,0 l/m 0,0 km/h (0 Bft) SO 135 7,1 C 13,0 C 0,0 km/h (0 Bft)
01.11.2014 16:20 11,9 C 73 % 1024,8 hPa 0,0 l/m 0,0 km/h (0 Bft) SO 135 7,2 C 12,9 C 0,0 km/h (0 Bft)
01.11.2014 16:25 12,0 C 74 % 1024,8 hPa 0,0 l/m 0,0 km/h (0 Bft) SO 135 7,5 C 12,9 C 0,0 km/h (0 Bft)
01.11.2014 16:30 12,2 C 75 % 1024,8 hPa 0,0 l/m 0,0 km/h (0 Bft) S-SO 157 7,9 C 12,8 C 0,0 km/h (0 Bft)
01.11.2014 16:35 12,1 C 75 % 1024,8 hPa 0,0 l/m 0,0 km/h (0 Bft) S-SW 202 7,8 C 12,3 C 0,0 km/h (0 Bft)
01.11.2014 16:40 12,0 C 75 % 1024,7 hPa 0,0 l/m 0,0 km/h (0 Bft) S 180 7,7 C 12,1 C 0,0 km/h (0 Bft)
01.11.2014 16:45 11,7 C 76 % 1024,7 hPa 0,0 l/m 0,0 km/h (0 Bft) S-SW 202 7,6 C 11,6 C 0,0 km/h (0 Bft)
01.11.2014 16:50 11,5 C 76 % 1024,7 hPa 0,0 l/m 0,0 km/h (0 Bft) S-SO 157 7,4 C 11,3 C 0,0 km/h (0 Bft)
01.11.2014 16:55 11,3 C 77 % 1024,7 hPa 0,0 l/m 0,0 km/h (0 Bft) S 180 7,4 C 10,9 C 0,0 km/h (0 Bft)
01.11.2014 17:00 11,2 C 78 % 1024,6 hPa 0,0 l/m 0,0 km/h (0 Bft) S 180 7,5 C 10,6 C 1,6 km/h (1 Bft)
01.11.2014 17:05 11,1 C 78 % 1024,6 hPa 0,0 l/m 0,2 km/h (0 Bft) O-SO 112 7,4 C 10,4 C 0,0 km/h (0 Bft)
01.11.2014 17:10 10,9 C 78 % 1024,6 hPa 0,0 l/m 0,2 km/h (0 Bft) W-NW 292 7,2 C 10,2 C 0,0 km/h (0 Bft)
01.11.2014 17:15 10,5 C 78 % 1024,6 hPa 0,0 l/m 0,0 km/h (0 Bft) S-SW 202 6,8 C 9,5 C 0,0 km/h (0 Bft)
01.11.2014 17:20 9,7 C 78 % 1024,6 hPa 0,0 l/m 0,0 km/h (0 Bft) S-SW 202 6,1 C 9,1 C 0,0 km/h (0 Bft)
01.11.2014 17:25 10,0 C 79 % 1024,6 hPa 0,0 l/m 0,3 km/h (0 Bft) S-SO 157 6,5 C 8,8 C 0,0 km/h (0 Bft)
01.11.2014 17:30 10,1 C 80 % 1024,6 hPa 0,0 l/m 0,3 km/h (0 Bft) S-SO 157 6,8 C 8,7 C 0,0 km/h (0 Bft)
01.11.2014 17:35 9,5 C 80 % 1024,6 hPa 0,0 l/m 0,0 km/h (0 Bft) S 180 6,2 C 8,4 C 0,0 km/h (0 Bft)
01.11.2014 17:40 9,5 C 81 % 1024,8 hPa 0,0 l/m 0,2 km/h (0 Bft) S-SO 157 6,4 C 8,3 C 0,0 km/h (0 Bft)
01.11.2014 17:45 9,7 C 83 % 1024,8 hPa 0,0 l/m 0,2 km/h (0 Bft) W-SW 247 7,0 C 8,1 C 0,0 km/h (0 Bft)
01.11.2014 17:50 9,8 C 83 % 1024,8 hPa 0,0 l/m 0,3 km/h (0 Bft) W-SW 247 7,1 C 8,1 C 1,8 km/h (1 Bft)
01.11.2014 17:55 9,4 C 82 % 1024,8 hPa 0,0 l/m 1,0 km/h (0 Bft) S-SO 157 6,5 C 8,2 C 3,1 km/h (1 Bft)
01.11.2014 18:00 9,3 C 83 % 1024,8 hPa 0,0 l/m 1,4 km/h (1 Bft) O-NO 67 6,6 C 8,2 C 1,8 km/h (1 Bft)
01.11.2014 18:05 9,1 C 83 % 1024,8 hPa 0,0 l/m 1,3 km/h (1 Bft) S-SO 157 6,4 C 8,3 C 0,0 km/h (0 Bft)
01.11.2014 18:10 8,9 C 84 % 1024,8 hPa 0,0 l/m 1,1 km/h (1 Bft) SW 225 6,3 C 8,2 C 1,9 km/h (1 Bft)
01.11.2014 18:15 8,2 C 84 % 1024,8 hPa 0,0 l/m 0,8 km/h (0 Bft) SO 135 5,7 C 7,8 C 0,0 km/h (0 Bft)
01.11.2014 18:20 7,8 C 84 % 1024,8 hPa 0,0 l/m 0,5 km/h (0 Bft) S 180 5,3 C 7,5 C 1,8 km/h (1 Bft)
01.11.2014 18:25 7,5 C 84 % 1024,8 hPa 0,0 l/m 0,2 km/h (0 Bft) SO 135 5,0 C 7,1 C 0,0 km/h (0 Bft)
01.11.2014 18:30 7,1 C 84 % 1024,8 hPa 0,0 l/m 0,2 km/h (0 Bft) S 180 4,6 C 7,0 C 0,0 km/h (0 Bft)
01.11.2014 18:35 6,6 C 85 % 1024,8 hPa 0,0 l/m 0,0 km/h (0 Bft) SO 135 4,3 C 6,7 C 0,0 km/h (0 Bft)
01.11.2014 18:40 6,4 C 85 % 1024,6 hPa 0,0 l/m 0,0 km/h (0 Bft) SO 135 4,1 C 6,6 C 0,0 km/h (0 Bft)
01.11.2014 18:45 6,3 C 85 % 1024,6 hPa 0,0 l/m 0,0 km/h (0 Bft) SO 135 4,0 C 6,3 C 0,0 km/h (0 Bft)
01.11.2014 18:50 6,4 C 85 % 1024,6 hPa 0,0 l/m 0,0 km/h (0 Bft) S-SO 157 4,1 C 6,3 C 0,0 km/h (0 Bft)
01.11.2014 18:55 6,7 C 86 % 1024,6 hPa 0,0 l/m 0,2 km/h (0 Bft) S-SW 202 4,5 C 6,3 C 2,1 km/h (1 Bft)
01.11.2014 18:58 7,0 C 86 % 1024,6 hPa 0,0 l/m 0,2 km/h (0 Bft) S 180 4,8 C 6,4 C 0,0 km/h (0 Bft)
01.11.2014 19:00 7,0 C 86 % 1024,6 hPa 0,0 l/m 0,2 km/h (0 Bft) S 180 4,8 C 6,4 C 0,0 km/h (0 Bft)
01.11.2014 19:05 6,8 C 87 % 1024,6 hPa 0,0 l/m 0,2 km/h (0 Bft) S-SW 202 4,8 C 6,5 C 0,0 km/h (0 Bft)
01.11.2014 19:10 6,5 C 87 % 1024,6 hPa 0,0 l/m 0,0 km/h (0 Bft) S-SW 202 4,5 C 6,3 C 0,0 km/h (0 Bft)
01.11.2014 19:15 6,2 C 87 % 1024,6 hPa 0,0 l/m 0,0 km/h (0 Bft) SW 225 4,2 C 6,3 C 0,0 km/h (0 Bft)
01.11.2014 19:20 5,8 C 88 % 1024,6 hPa 0,0 l/m 0,0 km/h (0 Bft) SW 225 4,0 C 6,2 C 0,0 km/h (0 Bft)
01.11.2014 19:25 5,7 C 88 % 1024,6 hPa 0,0 l/m 0,0 km/h (0 Bft) SW 225 3,9 C 5,8 C 0,0 km/h (0 Bft)
01.11.2014 19:30 5,4 C 88 % 1024,6 hPa 0,0 l/m 0,0 km/h (0 Bft) SW 225 3,6 C 5,7 C 0,0 km/h (0 Bft)
01.11.2014 19:35 5,6 C 88 % 1024,6 hPa 0,0 l/m 1,0 km/h (0 Bft) S 180 3,8 C 5,6 C 0,0 km/h (0 Bft)
01.11.2014 19:40 5,3 C 88 % 1024,7 hPa 0,0 l/m 1,0 km/h (0 Bft) S-SO 157 3,5 C 5,6 C 0,0 km/h (0 Bft)
01.11.2014 19:45 5,3 C 88 % 1024,7 hPa 0,0 l/m 0,0 km/h (0 Bft) S-SO 157 3,5 C 5,3 C 0,0 km/h (0 Bft)
01.11.2014 19:50 5,3 C 88 % 1024,7 hPa 0,0 l/m 0,0 km/h (0 Bft) S-SO 157 3,5 C 5,3 C 0,0 km/h (0 Bft)
01.11.2014 19:55 5,1 C 88 % 1024,7 hPa 0,0 l/m 0,0 km/h (0 Bft) S-SO 157 3,3 C 5,3 C 0,0 km/h (0 Bft)
01.11.2014 20:00 5,2 C 89 % 1024,5 hPa 0,0 l/m 0,0 km/h (0 Bft) S-SO 157 3,5 C 5,3 C 0,0 km/h (0 Bft)
01.11.2014 20:05 5,6 C 89 % 1024,5 hPa 0,0 l/m 0,2 km/h (0 Bft) S-SO 157 3,9 C 5,4 C 0,0 km/h (0 Bft)
01.11.2014 20:10 5,3 C 89 % 1024,5 hPa 0,0 l/m 0,2 km/h (0 Bft) S-SO 157 3,6 C 5,4 C 0,0 km/h (0 Bft)
01.11.2014 20:15 4,9 C 89 % 1024,5 hPa 0,0 l/m 0,0 km/h (0 Bft) S-SO 157 3,2 C 5,2 C 0,0 km/h (0 Bft)
01.11.2014 20:20 5,3 C 89 % 1024,4 hPa 0,0 l/m 0,0 km/h (0 Bft) S-SO 157 3,6 C 5,1 C 0,0 km/h (0 Bft)
01.11.2014 20:25 4,9 C 89 % 1024,4 hPa 0,0 l/m 0,0 km/h (0 Bft) S-SO 157 3,2 C 5,0 C 0,0 km/h (0 Bft)
01.11.2014 20:30 4,6 C 89 % 1024,4 hPa 0,0 l/m 0,0 km/h (0 Bft) S-SO 157 2,9 C 4,9 C 0,0 km/h (0 Bft)
01.11.2014 20:35 4,9 C 90 % 1024,4 hPa 0,0 l/m 0,0 km/h (0 Bft) S-SO 157 3,4 C 4,6 C 0,0 km/h (0 Bft)
01.11.2014 20:40 4,7 C 90 % 1024,2 hPa 0,0 l/m 0,0 km/h (0 Bft) S-SO 157 3,2 C 4,7 C 0,0 km/h (0 Bft)
01.11.2014 20:45 4,5 C 90 % 1024,2 hPa 0,0 l/m 0,0 km/h (0 Bft) S-SO 157 3,0 C 4,6 C 0,0 km/h (0 Bft)
01.11.2014 20:50 4,8 C 90 % 1024,2 hPa 0,0 l/m 0,0 km/h (0 Bft) S-SO 157 3,3 C 4,5 C 0,0 km/h (0 Bft)
01.11.2014 20:55 4,6 C 90 % 1024,2 hPa 0,0 l/m 0,0 km/h (0 Bft) S-SO 157 3,1 C 4,5 C 0,0 km/h (0 Bft)
01.11.2014 21:00 4,5 C 90 % 1024,3 hPa 0,0 l/m 0,0 km/h (0 Bft) S-SO 157 3,0 C 4,4 C 0,0 km/h (0 Bft)
01.11.2014 21:05 4,1 C 90 % 1024,3 hPa 0,0 l/m 0,0 km/h (0 Bft) S-SO 157 2,6 C 4,3 C 0,0 km/h (0 Bft)
01.11.2014 21:10 4,3 C 90 % 1024,3 hPa 0,0 l/m 0,0 km/h (0 Bft) S-SO 157 2,8 C 4,2 C 0,0 km/h (0 Bft)
01.11.2014 21:15 4,7 C 91 % 1024,3 hPa 0,0 l/m 0,0 km/h (0 Bft) S-SO 157 3,4 C 4,2 C 0,0 km/h (0 Bft)
01.11.2014 21:20 4,5 C 91 % 1024,4 hPa 0,0 l/m 0,0 km/h (0 Bft) W-SW 247 3,2 C 4,3 C 0,0 km/h (0 Bft)
01.11.2014 21:25 5,0 C 91 % 1024,4 hPa 0,0 l/m 0,0 km/h (0 Bft) S-SO 157 3,7 C 4,3 C 0,0 km/h (0 Bft)
01.11.2014 21:30 4,6 C 91 % 1024,4 hPa 0,0 l/m 0,0 km/h (0 Bft) S-SO 157 3,3 C 4,5 C 0,0 km/h (0 Bft)
01.11.2014 21:35 5,2 C 91 % 1024,4 hPa 0,0 l/m 0,3 km/h (0 Bft) S-SO 157 3,9 C 4,6 C 0,0 km/h (0 Bft)
01.11.2014 21:40 5,6 C 92 % 1024,4 hPa 0,0 l/m 0,5 km/h (0 Bft) SO 135 4,4 C 5,0 C 0,0 km/h (0 Bft)
01.11.2014 21:45 4,7 C 92 % 1024,4 hPa 0,0 l/m 0,2 km/h (0 Bft) SO 135 3,5 C 4,8 C 0,0 km/h (0 Bft)
01.11.2014 21:50 5,6 C 92 % 1024,4 hPa 0,0 l/m 0,2 km/h (0 Bft) S-SO 157 4,4 C 4,9 C 1,8 km/h (1 Bft)
01.11.2014 21:55 5,4 C 92 % 1024,4 hPa 0,0 l/m 1,1 km/h (1 Bft) S 180 4,2 C 5,1 C 2,4 km/h (1 Bft)
01.11.2014 22:00 4,8 C 92 % 1024,2 hPa 0,0 l/m 1,8 km/h (1 Bft) S 180 3,6 C 5,1 C 4,0 km/h (1 Bft)
01.11.2014 22:05 4,8 C 92 % 1024,2 hPa 0,0 l/m 1,4 km/h (1 Bft) S 180 3,6 C 4,9 C 5,5 km/h (1 Bft)
01.11.2014 22:10 4,7 C 92 % 1024,2 hPa 0,0 l/m 0,6 km/h (0 Bft) S-SO 157 3,5 C 4,7 C 0,0 km/h (0 Bft)
01.11.2014 22:15 5,0 C 92 % 1024,2 hPa 0,0 l/m 0,2 km/h (0 Bft) S-SO 157 3,8 C 4,4 C 0,0 km/h (0 Bft)
01.11.2014 22:20 5,4 C 93 % 1024,4 hPa 0,0 l/m 0,2 km/h (0 Bft) S-SO 157 4,4 C 4,4 C 0,0 km/h (0 Bft)
01.11.2014 22:25 5,5 C 93 % 1024,4 hPa 0,0 l/m 0,2 km/h (0 Bft) S-SO 157 4,5 C 4,8 C 0,0 km/h (0 Bft)
01.11.2014 22:30 5,6 C 93 % 1024,4 hPa 0,0 l/m 0,2 km/h (0 Bft) S-SO 157 4,6 C 5,0 C 1,9 km/h (1 Bft)
01.11.2014 22:35 5,7 C 93 % 1024,4 hPa 0,0 l/m 0,2 km/h (0 Bft) S-SO 157 4,7 C 5,2 C 0,0 km/h (0 Bft)
01.11.2014 22:40 5,4 C 93 % 1024,2 hPa 0,0 l/m 0,2 km/h (0 Bft) S 180 4,4 C 5,1 C 0,0 km/h (0 Bft)
01.11.2014 22:45 5,4 C 93 % 1024,2 hPa 0,0 l/m 0,2 km/h (0 Bft) SO 135 4,4 C 4,8 C 0,0 km/h (0 Bft)
01.11.2014 22:50 4,9 C 93 % 1024,2 hPa 0,0 l/m 0,2 km/h (0 Bft) SO 135 3,9 C 4,6 C 0,0 km/h (0 Bft)
01.11.2014 22:55 4,4 C 93 % 1024,2 hPa 0,0 l/m 0,0 km/h (0 Bft) SO 135 3,4 C 4,3 C 0,0 km/h (0 Bft)
01.11.2014 23:00 4,2 C 93 % 1024,1 hPa 0,0 l/m 0,0 km/h (0 Bft) S-SO 157 3,2 C 4,1 C 0,0 km/h (0 Bft)
01.11.2014 23:05 4,2 C 93 % 1024,1 hPa 0,0 l/m 0,0 km/h (0 Bft) S-SO 157 3,2 C 3,8 C 0,0 km/h (0 Bft)
01.11.2014 23:10 4,4 C 93 % 1024,1 hPa 0,0 l/m 0,0 km/h (0 Bft) S 180 3,4 C 3,7 C 1,6 km/h (1 Bft)
01.11.2014 23:15 4,2 C 93 % 1024,1 hPa 0,0 l/m 0,3 km/h (0 Bft) SO 135 3,2 C 3,8 C 3,2 km/h (1 Bft)
01.11.2014 23:20 4,6 C 93 % 1024,0 hPa 0,0 l/m 0,8 km/h (0 Bft) SO 135 3,6 C 3,8 C 0,0 km/h (0 Bft)
01.11.2014 23:25 3,9 C 93 % 1024,0 hPa 0,0 l/m 1,0 km/h (0 Bft) S-SO 157 2,9 C 3,9 C 1,8 km/h (1 Bft)
01.11.2014 23:30 4,3 C 93 % 1024,0 hPa 0,0 l/m 0,8 km/h (0 Bft) S-SO 157 3,3 C 3,8 C 3,7 km/h (1 Bft)
01.11.2014 23:35 4,3 C 93 % 1024,0 hPa 0,0 l/m 0,6 km/h (0 Bft) N-NO 22 3,3 C 4,2 C 1,6 km/h (1 Bft)
01.11.2014 23:40 3,9 C 93 % 1023,9 hPa 0,0 l/m 0,3 km/h (0 Bft) O-SO 112 2,9 C 4,0 C 0,0 km/h (0 Bft)
01.11.2014 23:45 3,8 C 93 % 1023,9 hPa 0,0 l/m 0,0 km/h (0 Bft) SO 135 2,8 C 3,6 C 0,0 km/h (0 Bft)
01.11.2014 23:50 3,7 C 93 % 1023,9 hPa 0,0 l/m 0,0 km/h (0 Bft) O-SO 112 2,7 C 3,5 C 0,0 km/h (0 Bft)
01.11.2014 23:55 3,7 C 93 % 1023,9 hPa 0,0 l/m 0,0 km/h (0 Bft) SO 135 2,7 C 3,3 C 0,0 km/h (0 Bft)
_ Min-Zeit 07:10 15:00 23:55 - 23:55 - - 05:35 03:50 23:55
Minimum _ 2,7 C 50 % 1023,9 hPa - 0,0 km/h (0 Bft) - - 2,1 C 2,4 C 0,0 km/h (0 Bft)
_ Max-Zeit 14:20 07:20 12:55 23:55 11:50 - - 10:50 14:20 22:05
Maximum _ 18,7 C 97 % 1026,4 hPa 0,0 l/m 3,1 km/h
O-NO (1 Bft)
- - 10,5 C 24,0 C 5,5 km/h
S (1 Bft)
Durchschnitt _ 7,6 C 86 % 1025,2 hPa #0,0 l/m 0,3 km/h (0 Bft) SO - 5,1 C 9,0 C 0,5 km/h (0 Bft)